Location: Bad Salzschlirf
(50.3750°N, 9.3000°E)
Time: 03:47:09
(UTC+02:00)

ISS - Pass Details

Date: 09 July 2025
Orbit: 413 x 417 km, 51.6° (Epoch: 12 July)

Event Time Altitude Azimuth Distance (km) Brightness Sun altitude
Rises 02:00:12 0° 279° (W) 2,356 0.1 -16.9°
Reaches altitude 10° 02:02:18 10° 281° (WNW) 1,493 -0.9 -16.9°
Maximum altitude 02:05:39 73° 7° (N) 439 -3.6 -16.8°
Drops below altitude 10° 02:09:00 10° 93° (E) 1,493 -0.9 -16.7°
Sets 02:11:06 0° 95° (E) 2,356 0.1 -16.7°
